Hourly Data Report for October 17, 2013

All times are specified in Local Standard Time (LST). Add 1 hour to adjust for Daylight Saving Time where and when it is observed.

IQALUIT CLIMATE
NUNAVUT

63°44'50.000" N
68°32'40.000" W
33.50 m
2402592
71321
XFB

Download Data

Hourly Data (October 2013)
Hourly Data Report for October 17, 2013
Temp Definition
°C
Dew Point Temp Definition
°C
Rel Hum Definition
%
Wind Dir Definition
10's deg

Wind Spd Definition
km/h
Visibility Definition
km
Stn Press Definition
kPa
Hmdx Definition


Wind Chill Definition


Weather Definition


TIME
00:00 0.4 -1.3 88 16 11   101.29     LegendNANA
01:00 0.3 -1.0 91 16 9   101.29     LegendNANA
02:00 0.4 -1.3 88 14 17   101.28     LegendNANA
03:00 0.5 -0.9 90 13 19   101.26     LegendNANA
04:00 0.5 -1.0 90 13 20   101.25     LegendNANA
05:00 0.3 -0.3 96 13 26   101.24     LegendNANA
06:00 0.1 -0.2 98 13 24   101.26     LegendNANA
07:00 0.0 -0.7 95 13 22   101.25   -6 LegendNANA
08:00 0.1 -0.6 95 13 24   101.25     LegendNANA
09:00 0.4 -0.4 94 13 24   101.22     LegendNANA
10:00 0.7 -0.4 92 13 26   101.20     LegendNANA
11:00 0.7 -0.3 93 14 20   101.19     LegendNANA
12:00 0.9 -0.3 92 14 19   101.19     LegendNANA
13:00 0.9 -0.4 91 14 26   101.19     LegendNANA
14:00 0.4 -0.4 94 14 28   101.19     LegendNANA
15:00 0.1 -0.2 98 15 30   101.17     LegendNANA
16:00 0.2 -0.1 98 15 24   101.15     LegendNANA
17:00 0.2 -0.1 98 15 26   101.12     LegendNANA
18:00 0.1 -0.1 99 15 30   101.11     LegendNANA
19:00 0.2 0.1 99 15 20   101.06     LegendNANA
20:00 0.7 -0.1 94 13 26   101.00     LegendNANA
21:00 0.4 0.2 99 15 28   100.95     LegendNANA
22:00 0.3 0.1 99 14 24   100.90     LegendNANA
23:00 0.7 0.0 95 13 24   100.90     LegendNANA

Notes on Data Quality.

Legend

  • E = Estimated
  • M = Missing
  • NA = Not Available
  • ‡ = Partner data that is not subject to review by the National Climate Archives
Date modified: